Starlink 4002

operational
NORAD ID: 52612 Int'l Des: 2022-052 Owner: SPXS Country: US Constellation: starlink
LEOCIRCULAR

Starlink 4002について

説明を読み込み中...

リアルタイム位置

3D地球を読み込み中...

次回通過

高度履歴

Altitude vs Time

uPlot chart will show altitude changes over time

軌道要素

1 52612U 22052Q 25343.22339120 -.00000335 00000-0 -29396-5 0 9993
2 52612 53.2182 325.2410 0001672 82.8671 277.2511 15.08841662197209
Epoch: Dec 9, 2025 • Age: 15 hours

現在のステータス

高度 551.0 km
速度 7.59 km/s
衛星直下点 -33.22°S, 142.89°E
打ち上げ日 May 14, 2022
運用期間 3.5 years
タイプ internet

技術仕様

分類 Payload
質量 297.00 kg
乾燥質量 275.00 kg
総質量 297.00 kg
長さ 0.20 m
直径 2.80 m
スパン 9.00 m
形状 Box + pan
製造者 SPXS
バスタイプ Starlink
フェーズステータス In Orbit
所有者/国 SPXS/US

大規模コンステレーション

Loading constellations...